Simultaneous Nadir Overpasses (SNOs) Predictions

Prediction of SNOs between GOES-16 and METOP-C Satellite Orbit:

Table of predicted SNOs for the next 14.0 days since TLE Epoch: 11/29/2019
Index Date Time (GOES-16) GOES-16 Lat,Lon METOP-C Lat,Lon Distance(km) Time Diff (sec)
1 12/01/2019 02:40:28 -0.02, -75.21 -0.60, -77.74 288.11 80
2 12/02/2019 02:22:28 -0.03, -75.22 0.54, -72.75 282.13 80
3 12/03/2019 14:38:40 0.04, -75.25 0.49, -77.31 235.26 80
4 12/04/2019 14:17:59 0.04, -75.26 -0.59, -72.31 335.39 80
5 12/06/2019 02:39:39 -0.04, -75.27 -0.38, -76.92 186.48 80
6 12/07/2019 02:16:19 -0.04, -75.29 0.70, -71.91 384.49 80
7 12/08/2019 14:35:10 0.04, -75.32 0.31, -76.48 131.80 80
8 12/09/2019 14:14:31 0.04, -75.34 -0.82, -71.49 439.38 80
9 12/11/2019 02:33:30 -0.04, -75.36 -0.22, -76.08 81.96 80
10 12/12/2019 02:15:31 -0.04, -75.38 0.92, -71.09 489.31 80
11 12/13/2019 14:31:42 0.05, -75.42 0.08, -75.65 26.57 80




NCC Satellite Simultaneous Nadir Overpasses (SNOs) Prediction Service
